Location: Alma
(38.7220°N, 88.9090°W)
Time: 10:57:16
(UTC-06:00)

Tiros 1 despin weight - All Passes

Search period start: 17 November 2019 00:00
Search period end: 27 November 2019 00:00
Orbit: 594 x 642 km, 48.2° (Epoch: 17 November)

Date Brightness Start Highest point End Pass type
(mag) Time Alt. Az. Time Alt. Az. Time Alt. Az.
17 Nov - 12:30:02 10° SSW 12:33:53 30° SE 12:37:47 10° ENE daylight
17 Nov - 14:10:57 10° WSW 14:15:16 54° NNW 14:19:39 10° NE daylight
17 Nov - 15:53:49 10° WNW 15:57:30 25° N 16:01:15 10° NE daylight
17 Nov - 17:36:07 10° NW 17:40:02 29° NNE 17:44:01 10° ENE visible
17 Nov - 19:17:31 10° WNW 19:22:03 83° NNE 19:26:39 10° ESE visible
17 Nov - 21:00:02 10° W 21:03:12 19° SW 21:06:23 10° S night (unlit)
18 Nov - 12:45:58 10° SW 12:50:17 61° SE 12:54:40 10° ENE daylight
18 Nov - 14:27:57 10° W 14:32:02 35° NNW 14:36:10 10° NE daylight
18 Nov - 16:10:51 10° NW 16:14:29 24° N 16:18:08 10° NE daylight
18 Nov - 17:52:40 10° NW 17:56:53 39° NNE 18:01:10 10° E visible
18 Nov - 19:34:10 10° WNW 19:38:35 53° SW 19:43:02 10° SE visible
19 Nov - 11:22:25 10° S 11:25:41 20° SE 11:28:57 10° E daylight
19 Nov - 13:02:27 10° WSW 13:06:51 74° NNW 13:11:17 10° NE daylight
19 Nov - 14:45:06 10° WNW 14:48:55 27° NNW 14:52:46 10° NE daylight
19 Nov - 16:27:41 10° NW 16:31:27 26° N 16:35:14 10° ENE daylight
19 Nov - 18:09:10 10° NW 18:13:37 61° NNE 18:18:08 10° ESE visible
19 Nov - 19:51:08 10° WNW 19:54:58 27° SW 19:58:50 10° SSE visible
20 Nov - 11:37:53 10° SSW 11:42:00 41° SE 11:46:09 10° ENE daylight
20 Nov - 13:19:19 10° W 13:23:32 44° NNW 13:27:48 10° NE daylight
20 Nov - 15:02:14 10° WNW 15:05:52 24° N 15:09:32 10° NE daylight
20 Nov - 16:44:19 10° NW 16:48:21 32° NNE 16:52:25 10° E daylight
20 Nov - 18:25:44 10° WNW 18:30:14 77° SW 18:34:47 10° SE visible
20 Nov - 20:08:59 10° W 20:11:13 14° SW 20:13:28 10° SSW visible
21 Nov - 10:15:22 10° SSE 10:17:30 13° SE 10:19:38 10° ESE daylight
21 Nov - 11:54:04 10° SW 11:58:28 80° SE 12:02:53 10° ENE daylight
21 Nov - 13:36:24 10° W 13:40:20 31° NNW 13:44:20 10° NE daylight
21 Nov - 15:19:12 10° NW 15:22:51 24° N 15:26:30 10° ENE daylight
21 Nov - 17:00:51 10° NW 17:05:10 46° NNE 17:09:31 10° E visible
21 Nov - 18:42:29 10° WNW 18:46:41 40° SW 18:50:57 10° SSE visible
22 Nov - 10:30:01 10° SSW 10:33:45 27° SE 10:37:30 10° ENE daylight
22 Nov - 12:10:44 10° WSW 12:15:05 58° NNW 12:19:27 10° NE daylight
22 Nov - 13:53:34 10° WNW 13:57:15 25° N 14:00:59 10° NE daylight
22 Nov - 15:35:57 10° NW 15:39:47 28° NNE 15:43:39 10° ENE daylight
22 Nov - 17:17:21 10° NW 17:21:50 76° NNE 17:26:22 10° ESE visible
22 Nov - 18:59:42 10° W 19:03:02 20° SW 19:06:22 10° S visible
23 Nov - 10:45:50 10° SW 10:50:08 54° SE 10:54:27 10° ENE daylight
23 Nov - 12:27:42 10° W 12:31:49 37° NNW 12:35:57 10° NE daylight
23 Nov - 14:10:38 10° NW 14:14:14 23° N 14:17:50 10° NE daylight
23 Nov - 15:52:31 10° NW 15:56:39 36° NNE 16:00:49 10° E daylight
23 Nov - 17:33:58 10° WNW 17:38:22 59° SW 17:42:49 10° SE visible
24 Nov - 09:22:30 10° S 09:25:33 18° SE 09:28:35 10° E daylight
24 Nov - 11:02:15 10° WSW 11:06:39 80° NNW 11:11:05 10° NE daylight
24 Nov - 12:44:51 10° WNW 12:48:40 28° NNW 12:52:31 10° NE daylight
24 Nov - 14:27:30 10° NW 14:31:11 25° N 14:34:54 10° ENE daylight
24 Nov - 16:09:01 10° NW 16:13:24 56° NNE 16:17:49 10° ESE daylight
24 Nov - 17:50:52 10° WNW 17:54:47 30° SW 17:58:44 10° SSE visible
25 Nov - 09:37:47 10° SSW 09:41:51 36° SE 09:45:54 10° ENE daylight
25 Nov - 11:19:03 10° W 11:23:19 47° NNW 11:27:36 10° NE daylight
25 Nov - 13:01:59 10° WNW 13:05:36 24° N 13:09:15 10° NE daylight
25 Nov - 14:44:10 10° NW 14:48:07 30° NNE 14:52:04 10° ENE daylight
25 Nov - 16:25:34 10° WNW 16:30:02 85° SSW 16:34:32 10° SE daylight
25 Nov - 18:08:31 10° W 18:11:03 15° SW 18:13:36 10° SSW visible
26 Nov - 08:15:43 10° SSE 08:17:22 12° SE 08:19:01 10° ESE daylight
26 Nov - 09:53:53 10° SW 09:58:17 72° SE 10:02:41 10° ENE daylight
26 Nov - 11:36:07 10° W 11:40:07 32° NNW 11:44:07 10° NE daylight
26 Nov - 13:18:59 10° NW 13:22:35 24° N 13:26:11 10° ENE daylight
26 Nov - 15:00:42 10° NW 15:04:55 43° NNE 15:09:11 10° E daylight
26 Nov - 16:42:16 10° WNW 16:46:30 44° SW 16:50:46 10° SSE daylight
